アトラス彗星

C/2019 T3 ( ATLAS )

English version
Home page
Updated on January 23, 2021

---------------------------------------------------------------------

・ プロフィール

発見日 2019年10月6日
発見光度 18.9等
発見者 Asteroid Terrestrial-Impact Last Alert System (ATLAS) search program

・ 写真集

・ 軌道要素

Epoch 2021 Mar. 7.0 TT = JDT 2459280.5
T 2021 Mar. 2.70436 TT                                  Rudenko
q   5.9464729            (2000.0)            P               Q
z  +0.0002928      Peri.  112.27681     +0.60545291     +0.57396383
 +/-0.0000009      Node   139.52075     -0.19750950     -0.56273256
e   0.9982589      Incl.  121.86227     +0.77098429     -0.59489292
From 500 observations 2019 Jan. 17-2020 Oct. 16, mean residual 0".5.

・ 光度変化

        m1 = -7.0 + 5 logΔ + 25 log r

---------------------------------------------------------------------

軌道要素はM.P.E.C. 2020-U96に掲載されたものです。
光度グラフはComet for Windowsで作成したものです。

---------------------------------------------------------------------

Copyright(C) Seiichi Yoshida (comet@aerith.net). All rights reserved.